This is the latest recevied weather packets stored in our database for station/object DL9RAN-11. If no packets are shown the sender has not sent any weather packets the latest 10 day(s).
| Time | Temp. | Humidity | Pressure | Rain* | Wind** | Luminosity | Snow |
|---|---|---|---|---|---|---|---|
| 1777964809 | 20.56° C | 58% | 1011.9 hPa | - | - | - | - |
| 1777964508 | 20° C | 60% | 1011.9 hPa | - | - | - | - |
| 1777963877 | 19.44° C | 61% | 1011.9 hPa | - | - | - | - |
| 1777963577 | 18.89° C | 61% | 1011.9 hPa | - | - | - | - |
| 1777963276 | 18.89° C | 61% | 1011.9 hPa | - | - | - | - |
| 1777960657 | 16.67° C | 66% | 1011.9 hPa | - | - | - | - |
| 1777960357 | 16.67° C | 66% | 1011.6 hPa | - | - | - | - |
| 1777959726 | 15.56° C | 67% | 1011.6 hPa | - | - | - | - |
| 1777959425 | 15.56° C | 67% | 1011.6 hPa | - | - | - | - |
| 1777958794 | 14.44° C | 67% | 1011.6 hPa | - | - | - | - |
| 1777957831 | 14.44° C | 66% | 1011.6 hPa | - | - | - | - |
| 1777956869 | 14.44° C | 65% | 1011.6 hPa | - | - | - | - |
| 1777954913 | 14.44° C | 64% | 1011.7 hPa | - | - | - | - |
| 1777953619 | 14.44° C | 64% | 1011.8 hPa | - | - | - | - |
| 1777951663 | 15° C | 63% | 1011.7 hPa | - | - | - | - |
| 1777951363 | 15° C | 62% | 1011.9 hPa | - | - | - | - |
| 1777951062 | 15° C | 62% | 1011.9 hPa | - | - | - | - |
| 1777950431 | 15° C | 62% | 1011.9 hPa | - | - | - | - |
| 1777949137 | 15.56° C | 61% | 1012.2 hPa | - | - | - | - |
| 1777948837 | 15.56° C | 61% | 1012.2 hPa | - | - | - | - |
| 1777948536 | 15.56° C | 61% | 1012.2 hPa | - | - | - | - |
| 1777948236 | 15.56° C | 60% | 1012.2 hPa | - | - | - | - |
| 1777947936 | 15.56° C | 60% | 1012.2 hPa | - | - | - | - |
| 1777947635 | 15.56° C | 60% | 1012.2 hPa | - | - | - | - |
| 1777947335 | 16.11° C | 60% | 1012.2 hPa | - | - | - | - |
* Rain since midnight (hover to see other rain measurements)
** Current wind speed in m/s (hover to see current wind gust speed)